Regional Weather Roundup
Issued by NWS

Home | Current Version | Previous Version | Text Only | Print | Product List | Glossary On
Versions: 1 2 3 4 5 6 7 8 9 10 11 12 13 14 15 16 17 18 19 20 21 22 23 24 25 26 27 28 29 30 31 32 33 34 35 36 37 38 39 40 41 42 43 44 45 46 47 48 49 50
000
ASUS44 KOUN 022310
RWROK

WEATHER ROUNDUP FOR OKLAHOMA
NATIONAL WEATHER SERVICE NORMAN OK
500 PM CST MON MAR 02 2015

NOTE: "FAIR" INDICATES FEW OR NO CLOUDS BELOW 12,000 FEET WITH NO
      SIGNIFICANT WEATHER AND/OR OBSTRUCTIONS TO VISIBILITY.

OKZ001>007-009>012-014-015-017-030000-
NORTHWEST OKLAHOMA AND THE PANHANDLE

CITY           SKY/WX    TMP DP  RH WIND       PRES   REMARKS
GAGE           CLOUDY    42  27  55 S13       30.05F
GUYMON         CLOUDY    38  31  76 S22       29.96F WCI  27
ENID/WOODRING  CLOUDY    36  28  75 SE8       30.16F WCI  29
$$

OKZ016-021>023-033>039-044-045-030000-
SOUTHWEST OKLAHOMA

CITY           SKY/WX    TMP DP  RH WIND       PRES   REMARKS
LAWTON/REGL    CLOUDY    38  29  70 SE3       30.18F
LAWTON/FT SILL CLOUDY    38  30  72 SE3       30.16F
FREDERICK      CLOUDY    38  30  73 CALM      30.16F HAZE
CLINTON        CLOUDY    37  27  67 S13       30.14F WCI  29
HOBART         CLOUDY    37  29  72 S12       30.16F WCI  29
ALTUS AFB      CLOUDY    39  30  71 S8        30.17S WCI  33
$$

OKZ018>020-024>031-030000-
CENTRAL OKLAHOMA

CITY           SKY/WX    TMP DP  RH WIND       PRES   REMARKS
OKLAHOMA CITY  CLOUDY    37  29  72 SE9       30.16F WCI  30
OKC/WILEY POST CLOUDY    37  30  75 S10       30.16F WCI  30
OKC/TINKER AFB CLOUDY    36  31  82 SE8       30.15F WCI  29
STILLWATER     CLOUDY    34  28  79 SE9       30.17F WCI  27
GUTHRIE        CLOUDY    36  29  75 SE8       30.16F HAZE    WCI  30
$$

OKZ008-013-054>072-030000-
NORTHEAST OKLAHOMA

CITY           SKY/WX    TMP DP  RH WIND       PRES   REMARKS
TULSA          CLOUDY    37  33  85 CALM      30.27R
TULSA/JONES    CLOUDY    35  32  88 CALM      30.25S FOG
PONCA CITY     CLOUDY    34  28  79 SE10      30.17F HAZE    WCI  26
BARTLESVILLE   CLOUDY    34  29  82 S6        30.27F WCI  29
MUSKOGEE       CLOUDY    38  32  79 SE8       30.27F WCI  32
$$

OKZ032-040>043-046>053-073>077-030000-
SOUTH CENTRAL/SOUTHEAST OKLAHOMA

CITY           SKY/WX    TMP DP  RH WIND       PRES   REMARKS
ARDMORE/DWNTWN CLOUDY    37  36  93 SE6       30.19F WCI  33
MCALESTER      FOG       39  37  92 CALM      30.23F VSB 1
$$



USA.gov is the U.S. government's official web portal to all federal, state and local government web resources and services.